MQT25T CYQB-KJFK

Flight info

Callsign MQT25T
Flight time 1h 13m
Altitude 32000
Route PENTU Q824 CATOG DCT PONCT PUCKY1
Aircraft B738/M-SDE2E3FGHIRWXY/LB1

Departure

Time 2026-05-08 17:37
Airport Quebec Jean Lesage International Airport (CYQB)

Arrival

Time 2026-05-08 18:51
Airport John F. Kennedy International Airport (KJFK)
Time Latitude Longitude Altitude Speed Heading
2026-05-08 17:11 46.79257 -71.38460 242 ft 0 kts 102°
2026-05-08 17:27 46.79257 -71.38461 242 ft 2 kts 102°
2026-05-08 17:27 46.79262 -71.38496 242 ft 4 kts 103°
2026-05-08 17:27 46.79267 -71.38534 242 ft 4 kts 84°
2026-05-08 17:28 46.79258 -71.38568 243 ft 4 kts 39°
2026-05-08 17:28 46.79244 -71.38579 242 ft 0 kts 11°
2026-05-08 17:30 46.79247 -71.38578 243 ft 2 kts 11°
2026-05-08 17:30 46.79275 -71.38571 243 ft 5 kts 10°
2026-05-08 17:30 46.79316 -71.38560 243 ft 7 kts 10°
2026-05-08 17:31 46.79368 -71.38550 243 ft 9 kts 355°
2026-05-08 17:31 46.79432 -71.38563 243 ft 10 kts 25°
2026-05-08 17:31 46.79484 -71.38497 243 ft 10 kts 44°
2026-05-08 17:31 46.79531 -71.38427 243 ft 10 kts 45°
2026-05-08 17:32 46.79573 -71.38325 242 ft 14 kts 73°
2026-05-08 17:32 46.79633 -71.38220 242 ft 16 kts 46°
2026-05-08 17:32 46.79713 -71.38099 242 ft 14 kts 45°
2026-05-08 17:32 46.79820 -71.38048 242 ft 18 kts
2026-05-08 17:33 46.79862 -71.38048 243 ft 0 kts
2026-05-08 17:36 46.79894 -71.38048 243 ft 16 kts 356°
2026-05-08 17:36 46.79959 -71.38136 245 ft 12 kts 267°
2026-05-08 17:37 46.79919 -71.38220 244 ft 12 kts 226°
2026-05-08 17:37 46.79654 -71.38601 245 ft 97 kts 224°
2026-05-08 17:37 46.78996 -71.39559 315 ft 164 kts 225°
2026-05-08 17:37 46.78086 -71.40798 902 ft 196 kts 225°
2026-05-08 17:38 46.77045 -71.42254 1619 ft 216 kts 225°
2026-05-08 17:38 46.75952 -71.43833 2244 ft 223 kts 226°
2026-05-08 17:38 46.74795 -71.45308 3011 ft 217 kts 218°
2026-05-08 17:38 46.73607 -71.46569 3783 ft 209 kts 229°
2026-05-08 17:39 46.72670 -71.48284 4074 ft 225 kts 233°
2026-05-08 17:39 46.71591 -71.50032 4471 ft 238 kts 229°
2026-05-08 17:39 46.70388 -71.51824 4870 ft 252 kts 228°
2026-05-08 17:39 46.69139 -71.53653 5657 ft 256 kts 227°
2026-05-08 17:40 46.67868 -71.55494 6461 ft 260 kts 227°
2026-05-08 17:40 46.66577 -71.57354 7239 ft 262 kts 227°
2026-05-08 17:40 46.65277 -71.59222 8075 ft 263 kts 226°
2026-05-08 17:40 46.63957 -71.61114 8823 ft 268 kts 226°
2026-05-08 17:41 46.62616 -71.63036 9648 ft 272 kts 226°
2026-05-08 17:41 46.61722 -71.64316 10172 ft 275 kts 226°
2026-05-08 17:41 46.60308 -71.66340 10445 ft 298 kts 226°
2026-05-08 17:41 46.58772 -71.68535 10630 ft 320 kts 226°
2026-05-08 17:42 46.57137 -71.70869 10907 ft 337 kts 226°
2026-05-08 17:42 46.55490 -71.73346 11419 ft 344 kts 231°
2026-05-08 17:42 46.53976 -71.76064 12105 ft 347 kts 234°
2026-05-08 17:42 46.52504 -71.78848 12866 ft 348 kts 234°
2026-05-08 17:43 46.51021 -71.81652 13552 ft 352 kts 234°
2026-05-08 17:43 46.49507 -71.84473 14151 ft 356 kts 234°
2026-05-08 17:43 46.47964 -71.87312 14762 ft 359 kts 233°
2026-05-08 17:43 46.46403 -71.90166 15404 ft 363 kts 233°
2026-05-08 17:44 46.44827 -71.93040 16061 ft 366 kts 233°
2026-05-08 17:44 46.43236 -71.95938 16713 ft 369 kts 233°
2026-05-08 17:44 46.41628 -71.98864 17351 ft 373 kts 233°
2026-05-08 17:44 46.40001 -72.01822 18006 ft 376 kts 233°
2026-05-08 17:45 46.38362 -72.04801 18562 ft 380 kts 233°
2026-05-08 17:45 46.36707 -72.07806 19086 ft 383 kts 233°
2026-05-08 17:45 46.35037 -72.10834 19619 ft 386 kts 233°
2026-05-08 17:45 46.33356 -72.13880 20155 ft 389 kts 233°
2026-05-08 17:46 46.31661 -72.16947 20646 ft 392 kts 233°
2026-05-08 17:46 46.29950 -72.20042 21143 ft 396 kts 233°
2026-05-08 17:46 46.28223 -72.23159 21632 ft 399 kts 233°
2026-05-08 17:46 46.26502 -72.26264 22101 ft 402 kts 233°
2026-05-08 17:47 46.24747 -72.29426 22573 ft 405 kts 232°
2026-05-08 17:47 46.22979 -72.32609 23040 ft 408 kts 232°
2026-05-08 17:47 46.21196 -72.35814 23474 ft 411 kts 233°
2026-05-08 17:47 46.19400 -72.39038 23850 ft 413 kts 233°
2026-05-08 17:48 46.17594 -72.42279 24242 ft 416 kts 233°
2026-05-08 17:48 46.15777 -72.45534 24632 ft 418 kts 233°
2026-05-08 17:48 46.13948 -72.48809 25009 ft 420 kts 233°
2026-05-08 17:48 46.12110 -72.52095 25364 ft 422 kts 233°
2026-05-08 17:49 46.10262 -72.55396 25717 ft 424 kts 233°
2026-05-08 17:49 46.08402 -72.58713 26061 ft 427 kts 233°
2026-05-08 17:49 46.06532 -72.62044 26412 ft 429 kts 233°
2026-05-08 17:49 46.04649 -72.65400 26731 ft 431 kts 233°
2026-05-08 17:50 46.02762 -72.68761 27080 ft 433 kts 233°
2026-05-08 17:50 46.00867 -72.72136 27400 ft 435 kts 233°
2026-05-08 17:50 45.98963 -72.75523 27728 ft 436 kts 233°
2026-05-08 17:50 45.97052 -72.78918 28082 ft 437 kts 233°
2026-05-08 17:51 45.95137 -72.82313 28483 ft 437 kts 233°
2026-05-08 17:51 45.93063 -72.85500 28930 ft 439 kts 223°
2026-05-08 17:51 45.90527 -72.87981 29394 ft 443 kts 212°
2026-05-08 17:51 45.87695 -72.89749 29802 ft 447 kts 200°
2026-05-08 17:52 45.84654 -72.90794 30120 ft 450 kts 196°
2026-05-08 17:52 45.81583 -72.91706 30399 ft 452 kts 195°
2026-05-08 17:52 45.75424 -72.93490 31013 ft 451 kts 196°
2026-05-08 17:53 45.72348 -72.94397 31328 ft 451 kts 196°
2026-05-08 17:53 45.69279 -72.95317 31607 ft 451 kts 196°
2026-05-08 17:53 45.66210 -72.96248 31852 ft 452 kts 197°
2026-05-08 17:54 45.60023 -72.98144 31880 ft 457 kts 197°
2026-05-08 17:54 45.54065 -72.99968 31870 ft 451 kts 197°
2026-05-08 17:55 45.47980 -73.01825 31881 ft 450 kts 197°
2026-05-08 17:55 45.41847 -73.03695 31882 ft 451 kts 197°
2026-05-08 17:56 45.35712 -73.05561 31881 ft 451 kts 197°
2026-05-08 17:56 45.29574 -73.07424 31868 ft 452 kts 197°
2026-05-08 17:57 45.23423 -73.09285 31879 ft 452 kts 197°
2026-05-08 17:57 45.17263 -73.11145 31880 ft 453 kts 197°
2026-05-08 17:58 45.11097 -73.13003 31878 ft 453 kts 197°
2026-05-08 17:58 45.04930 -73.14856 31875 ft 453 kts 197°
2026-05-08 17:59 44.98761 -73.16707 31885 ft 454 kts 197°
2026-05-08 17:59 44.92578 -73.18558 31883 ft 454 kts 197°
2026-05-08 18:00 44.86392 -73.20405 31881 ft 455 kts 198°
2026-05-08 18:00 44.77098 -73.23173 31894 ft 455 kts 198°
2026-05-08 18:01 44.70895 -73.25016 31872 ft 456 kts 198°
2026-05-08 18:01 44.64680 -73.26857 31887 ft 456 kts 198°
2026-05-08 18:02 44.59516 -73.28385 31890 ft 457 kts 198°
2026-05-08 18:02 44.52241 -73.30532 31882 ft 457 kts 199°
2026-05-08 18:03 44.46015 -73.32364 31902 ft 458 kts 199°
2026-05-08 18:03 44.39773 -73.34199 31907 ft 458 kts 199°
2026-05-08 18:04 44.33528 -73.36029 31877 ft 459 kts 200°
2026-05-08 18:04 44.27274 -73.37858 31911 ft 459 kts 199°
2026-05-08 18:05 44.21016 -73.39686 31906 ft 460 kts 199°
2026-05-08 18:05 44.14749 -73.41510 31876 ft 460 kts 200°
2026-05-08 18:06 44.08495 -73.43326 31899 ft 459 kts 200°
2026-05-08 18:06 44.02274 -73.45130 31905 ft 459 kts 200°
2026-05-08 18:07 43.96020 -73.46939 31870 ft 458 kts 200°
2026-05-08 18:07 43.89736 -73.48753 31897 ft 458 kts 200°
2026-05-08 18:08 43.83530 -73.50543 31895 ft 459 kts 200°
2026-05-08 18:08 43.77286 -73.52337 31904 ft 458 kts 200°
2026-05-08 18:09 43.71046 -73.54129 31907 ft 459 kts 200°
2026-05-08 18:09 43.64788 -73.55921 31909 ft 459 kts 200°
2026-05-08 18:10 43.58546 -73.57700 31925 ft 457 kts 200°
2026-05-08 18:10 43.52310 -73.59481 31909 ft 459 kts 200°
2026-05-08 18:11 43.46052 -73.61264 31908 ft 460 kts 200°
2026-05-08 18:11 43.39769 -73.63048 31889 ft 461 kts 201°
2026-05-08 18:12 43.33491 -73.64823 31891 ft 461 kts 201°
2026-05-08 18:12 43.27223 -73.66593 31896 ft 459 kts 201°
2026-05-08 18:13 43.20969 -73.68356 31896 ft 457 kts 201°
2026-05-08 18:13 43.14748 -73.70107 31913 ft 456 kts 201°
2026-05-08 18:14 43.08537 -73.71854 31926 ft 456 kts 201°
2026-05-08 18:14 43.02331 -73.73593 31930 ft 454 kts 201°
2026-05-08 18:15 42.96400 -73.75251 31933 ft 451 kts 201°
2026-05-08 18:15 42.90280 -73.76963 31948 ft 453 kts 201°
2026-05-08 18:16 42.84102 -73.78686 31921 ft 453 kts 201°
2026-05-08 18:16 42.77928 -73.80403 31934 ft 453 kts 201°
2026-05-08 18:17 42.71614 -73.81541 31947 ft 468 kts 190°
2026-05-08 18:17 42.65085 -73.81503 31930 ft 470 kts 189°
2026-05-08 18:18 42.58558 -73.81406 31940 ft 468 kts 189°
2026-05-08 18:18 42.52045 -73.81391 31947 ft 467 kts 190°
2026-05-08 18:19 42.45548 -73.81420 31908 ft 467 kts 190°
2026-05-08 18:19 42.39072 -73.81453 31931 ft 465 kts 190°
2026-05-08 18:20 42.32603 -73.81484 31941 ft 464 kts 190°
2026-05-08 18:20 42.26144 -73.81513 31891 ft 464 kts 190°
2026-05-08 18:21 42.19701 -73.81540 31931 ft 463 kts 190°
2026-05-08 18:21 42.13257 -73.81569 31927 ft 463 kts 190°
2026-05-08 18:22 42.06841 -73.81593 31877 ft 453 kts 191°
2026-05-08 18:22 42.03781 -73.81774 31910 ft 426 kts 199°
2026-05-08 18:22 42.00969 -73.82558 31619 ft 405 kts 208°
2026-05-08 18:23 41.98361 -73.83834 31166 ft 392 kts 216°
2026-05-08 18:23 41.95986 -73.85519 30701 ft 383 kts 221°
2026-05-08 18:23 41.93665 -73.87276 30218 ft 382 kts 221°
2026-05-08 18:23 41.91347 -73.89019 29702 ft 382 kts 221°
2026-05-08 18:24 41.89024 -73.90753 29129 ft 381 kts 220°
2026-05-08 18:24 41.86710 -73.92471 28537 ft 380 kts 220°
2026-05-08 18:24 41.84425 -73.94161 28003 ft 380 kts 220°
2026-05-08 18:24 41.82111 -73.95870 27468 ft 378 kts 220°
2026-05-08 18:25 41.79809 -73.97568 26946 ft 377 kts 220°
2026-05-08 18:25 41.77513 -73.99260 26436 ft 376 kts 220°
2026-05-08 18:25 41.75217 -74.00950 25924 ft 376 kts 219°
2026-05-08 18:25 41.72836 -74.02464 25418 ft 385 kts 211°
2026-05-08 18:26 41.70227 -74.03494 24948 ft 399 kts 201°
2026-05-08 18:26 41.67444 -74.04020 24478 ft 407 kts 197°
2026-05-08 18:26 41.64627 -74.04428 24003 ft 407 kts 196°
2026-05-08 18:26 41.61778 -74.04821 23540 ft 405 kts 196°
2026-05-08 18:27 41.59024 -74.05210 23002 ft 404 kts 197°
2026-05-08 18:27 41.58080 -74.05347 22806 ft 403 kts 197°
2026-05-08 18:27 41.53471 -74.06037 21909 ft 397 kts 197°
2026-05-08 18:27 41.50753 -74.06450 21369 ft 389 kts 197°
2026-05-08 18:28 41.48078 -74.06863 20633 ft 386 kts 197°
2026-05-08 18:28 41.45444 -74.07270 20278 ft 374 kts 197°
2026-05-08 18:28 41.42903 -74.07658 20019 ft 361 kts 197°
2026-05-08 18:28 41.40444 -74.08033 19761 ft 349 kts 197°
2026-05-08 18:29 41.38068 -74.08401 19512 ft 338 kts 199°
2026-05-08 18:29 41.35857 -74.09100 19245 ft 318 kts 211°
2026-05-08 18:29 41.33900 -74.10281 19039 ft 302 kts 221°
2026-05-08 18:29 41.32130 -74.11763 18992 ft 303 kts 223°
2026-05-08 18:30 41.30349 -74.13306 18953 ft 308 kts 223°
2026-05-08 18:30 41.28547 -74.14867 18920 ft 308 kts 223°
2026-05-08 18:30 41.26749 -74.16415 18928 ft 308 kts 223°
2026-05-08 18:30 41.25558 -74.17437 18944 ft 308 kts 223°
2026-05-08 18:31 41.23757 -74.18977 18939 ft 307 kts 223°
2026-05-08 18:31 41.21963 -74.20508 18937 ft 306 kts 223°
2026-05-08 18:31 41.20172 -74.22037 18946 ft 306 kts 223°
2026-05-08 18:31 41.18381 -74.23562 18961 ft 306 kts 223°
2026-05-08 18:32 41.16587 -74.25089 18964 ft 306 kts 223°
2026-05-08 18:32 41.14792 -74.26616 18953 ft 307 kts 223°
2026-05-08 18:32 41.12991 -74.28148 18947 ft 308 kts 223°
2026-05-08 18:32 41.11187 -74.29679 18941 ft 308 kts 222°
2026-05-08 18:33 41.09382 -74.31210 18951 ft 308 kts 222°
2026-05-08 18:33 41.07573 -74.32738 18954 ft 309 kts 220°
2026-05-08 18:33 41.05525 -74.33804 18945 ft 330 kts 198°
2026-05-08 18:33 41.03172 -74.33723 18950 ft 352 kts 175°
2026-05-08 18:34 41.00897 -74.32328 18940 ft 373 kts 147°
2026-05-08 18:34 40.99170 -74.29722 18977 ft 382 kts 127°
2026-05-08 18:34 40.97736 -74.26754 18961 ft 384 kts 124°
2026-05-08 18:34 40.96329 -74.23736 18960 ft 386 kts 124°
2026-05-08 18:35 40.94898 -74.20730 18949 ft 386 kts 128°
2026-05-08 18:35 40.93081 -74.18198 18942 ft 375 kts 152°
2026-05-08 18:35 40.90876 -74.16455 18963 ft 372 kts 152°
2026-05-08 18:35 40.89032 -74.13982 18759 ft 388 kts 127°
2026-05-08 18:36 40.87823 -74.10762 18231 ft 397 kts 106°
2026-05-08 18:36 40.87109 -74.07241 17733 ft 398 kts 107°
2026-05-08 18:36 40.85968 -74.03921 17156 ft 397 kts 128°
2026-05-08 18:36 40.84090 -74.01322 16641 ft 388 kts 149°
2026-05-08 18:37 40.81731 -73.99742 16157 ft 375 kts 170°
2026-05-08 18:37 40.79240 -73.98959 15864 ft 365 kts 176°
2026-05-08 18:37 40.76740 -73.98334 15383 ft 365 kts 177°
2026-05-08 18:37 40.74256 -73.97756 14891 ft 360 kts 177°
2026-05-08 18:38 40.71807 -73.97195 14440 ft 355 kts 177°
2026-05-08 18:38 40.69387 -73.96653 13976 ft 351 kts 177°
2026-05-08 18:38 40.66988 -73.96127 13460 ft 347 kts 177°
2026-05-08 18:38 40.64628 -73.95614 13046 ft 339 kts 177°
2026-05-08 18:39 40.62363 -73.95106 12992 ft 323 kts 178°
2026-05-08 18:39 40.60169 -73.94588 12995 ft 320 kts 178°
2026-05-08 18:39 40.57984 -73.94067 12997 ft 319 kts 177°
2026-05-08 18:39 40.55784 -73.93544 12533 ft 326 kts 178°
2026-05-08 18:40 40.53540 -73.93026 11938 ft 328 kts 177°
2026-05-08 18:40 40.51303 -73.92515 11394 ft 325 kts 177°
2026-05-08 18:40 40.49084 -73.92018 10857 ft 322 kts 177°
2026-05-08 18:40 40.46886 -73.91537 10339 ft 319 kts 177°
2026-05-08 18:41 40.44705 -73.91071 9809 ft 316 kts 177°
2026-05-08 18:41 40.42583 -73.90534 9222 ft 317 kts 168°
2026-05-08 18:41 40.40639 -73.89106 8645 ft 327 kts 142°
2026-05-08 18:41 40.39153 -73.86838 8163 ft 328 kts 129°
2026-05-08 18:42 40.37858 -73.84430 7996 ft 317 kts 128°
2026-05-08 18:42 40.36633 -73.82086 7980 ft 307 kts 128°
2026-05-08 18:42 40.35443 -73.79788 7979 ft 302 kts 127°
2026-05-08 18:42 40.34324 -73.77450 7984 ft 306 kts 116°
2026-05-08 18:43 40.33835 -73.74716 7830 ft 315 kts 91°
2026-05-08 18:43 40.34196 -73.71890 7253 ft 315 kts 64°
2026-05-08 18:43 40.35382 -73.69555 6739 ft 304 kts 38°
2026-05-08 18:43 40.37036 -73.67892 6233 ft 298 kts 29°
2026-05-08 18:44 40.38758 -73.66391 5694 ft 297 kts 28°
2026-05-08 18:44 40.40493 -73.64927 5176 ft 296 kts 27°
2026-05-08 18:44 40.42233 -73.63469 4640 ft 296 kts 27°
2026-05-08 18:44 40.43969 -73.62064 4224 ft 288 kts 21°
2026-05-08 18:45 40.45812 -73.61226 3862 ft 275 kts
2026-05-08 18:45 40.47652 -73.60642 3503 ft 269 kts
2026-05-08 18:45 40.49462 -73.60090 3160 ft 264 kts
2026-05-08 18:45 40.51217 -73.59562 2998 ft 252 kts
2026-05-08 18:46 40.52894 -73.59059 2815 ft 242 kts
2026-05-08 18:46 40.54504 -73.58675 2622 ft 227 kts 354°
2026-05-08 18:46 40.55950 -73.59151 2465 ft 207 kts 330°
2026-05-08 18:46 40.57126 -73.60074 2303 ft 186 kts 310°
2026-05-08 18:47 40.57780 -73.61397 2161 ft 163 kts 297°
2026-05-08 18:47 40.58370 -73.62653 2060 ft 163 kts 299°
2026-05-08 18:47 40.58946 -73.63894 2035 ft 153 kts 298°
2026-05-08 18:47 40.59479 -73.65071 1952 ft 151 kts 298°
2026-05-08 18:48 40.59998 -73.66221 1788 ft 138 kts 297°
2026-05-08 18:48 40.60466 -73.67257 1602 ft 127 kts 297°
2026-05-08 18:48 40.60898 -73.68220 1455 ft 119 kts 296°
2026-05-08 18:48 40.61319 -73.69156 1290 ft 118 kts 297°
2026-05-08 18:49 40.61734 -73.70075 1139 ft 120 kts 298°
2026-05-08 18:49 40.62165 -73.71031 965 ft 122 kts 298°
2026-05-08 18:49 40.62593 -73.71981 776 ft 120 kts 298°
2026-05-08 18:49 40.63003 -73.72894 653 ft 118 kts 297°
2026-05-08 18:50 40.63429 -73.73829 459 ft 120 kts 298°
2026-05-08 18:50 40.63855 -73.74794 277 ft 118 kts 300°
2026-05-08 18:50 40.64269 -73.75701 122 ft 114 kts 300°
2026-05-08 18:50 40.64663 -73.76567 30 ft 110 kts 301°
2026-05-08 18:51 40.65012 -73.77343 19 ft 84 kts 300°
2026-05-08 18:51 40.65209 -73.77783 20 ft 25 kts 302°
2026-05-08 18:51 40.65223 -73.77902 19 ft 5 kts 248°
2026-05-08 18:51 40.65198 -73.77935 20 ft 5 kts 212°
2026-05-08 18:52 40.65192 -73.77939 19 ft 0 kts 211°
2026-05-08 18:52 40.65189 -73.77943 19 ft 1 kts 212°
2026-05-08 18:52 40.65181 -73.77948 19 ft 1 kts 212°
2026-05-08 18:52 40.65185 -73.77991 19 ft 8 kts 297°
2026-05-08 18:53 40.65214 -73.78060 19 ft 8 kts 299°
2026-05-08 18:53 40.65203 -73.78128 21 ft 9 kts 214°
2026-05-08 18:53 40.65183 -73.78188 19 ft 8 kts 293°
2026-05-08 18:53 40.65185 -73.78243 19 ft 5 kts 220°
2026-05-08 18:54 40.65153 -73.78267 20 ft 6 kts 212°
2026-05-08 18:54 40.65124 -73.78294 20 ft 4 kts 215°
2026-05-08 18:54 40.65121 -73.78297 19 ft 1 kts 213°
2026-05-08 18:54 40.65114 -73.78302 19 ft 1 kts 212°
2026-05-08 18:55 40.65105 -73.78311 19 ft 0 kts 216°